Tracking 30074 objects as of 13-Jan-2025
HD Live streaming from Space Station
objects crossing your sky now

PEARL-1H

Track PEARL-1H now!
10-day predictions
PEARL-1H is classified as:


NORAD ID: 58265
Int'l Code: 2023-174K
Perigee: 472.1 km
Apogee: 482.3 km
Inclination: 97.4 °
Period: 94.0 minutes
Semi major axis: 6848 km
RCS: Unknown
Launch date: November 11, 2023
Source: (TBD)
Launch site: AIR FORCE WESTERN TEST RANGE (AFWTR)

Uplink (MHz):
Downlink (MHz): 435.390
Beacon (MHz):
Mode: 9600bps GMSK
Call sign: PEARLH
Status: Active

Your satellite tracking list
Your tracking list is empty




NASA's NSSDC Master Catalog

Two Line Element Set (TLE):
1 58265U 23174K   25013.14389668  .00027932  00000-0  90584-3 0  9991
2 58265  97.4261  91.5634 0007427 225.9259 134.1372 15.31920845 65661
Source of the keplerian elements: AFSPC